CAPE
0 0 0 0 0 28 94 106 286 115 198 169 11 0 0 0 0 0 0 0 0 0
0 0 0 0 0 0 3 11 12 8 169 112 8 0 0 0 0 0 0 0 0 0
0 0 0 0 0 0 0 5 0 0 22 49 7 5 2 0 0 0 0 0 1 1
0 0 0 0 0 0 0 0 9 0 0 13 2 1 1 0 0 0 0 0 0 2
0 0 0 0 0 0 0 0 8 1 0 11 0 0 2 0 0 0 0 0 1 1
0 0 0 0 0 0 0 4 0 8 27 25 0 0 0 0 0 0 0 0 2 0
0 1 1 0 0 2 1 8 5 14 47 23 4 0 0 0 0 0 0 0 0 0
4 2 2 2 1 0 3 8 11 18 37 9 0 0 0 0 0 0 1 0 0 0
2 4 1 4 4 1 0 6 28 43 19 3 0 0 0 0 0 0 0 0 0 0
4 5 2 3 4 2 0 7 49 47 17 1 0 2 1 0 0 0 0 0 0 0
5 4 5 5 5 3 3 5 45 50 12 1 0 1 1 2 0 0 0 0 0 0
6 6 5 6 5 5 3 2 25 35 0 0 0 1 1 0 0 0 1 1 1 0
6 5 5 4 5 4 2 0 1 1 1 0 0 1 1 0 0 0 1 1 1 1
3 3 3 2 4 3 1 0 0 0 0 0 1 1 1 1 0 0 1 1 1 1
CIN
-0 -0 -0 -0 -0 -248 -164 -173 -157 -208 -152 -158 -236 -0 -0 -0 -0 -0 -0 -0 -0 -0
-0 -0 -0 -0 -0 -0 -0 -175 -187 -207 -104 -151 -262 -18 -0 -0 -0 -0 -0 -0 -0 -0
-0 -0 -0 -0 -0 -0 -0 -0 -0 -0 -183 -171 -240 -119 -90 -6 -0 -0 -0 -0 -0 -0
-0 -0 -0 -0 -0 -0 -0 -0 -0 -0 -0 -186 -252 -39 -57 -0 -0 -0 -0 -0 -0 -0
-0 -0 -0 -0 -0 -0 -0 -0 -0 -2 -0 -142 -0 -0 -74 -0 -0 -0 -0 -0 -0 -0
-0 -0 -0 -0 -0 -0 -0 -0 -0 -8 -135 -155 -0 -0 -0 -0 -0 -0 -0 -0 -0 -0
-0 -0 -0 -0 -0 -0 -0 -0 -0 -170 -140 -182 -55 -0 -0 -0 -0 -0 -0 -0 -0 -0
-0 -0 -0 -0 -0 -0 -0 -0 -12 -42 -141 -230 -0 -0 -0 -0 -0 -0 -0 -0 -0 -0
-0 -0 -0 -0 -0 -0 -0 -0 -15 -0 -228 -55 -0 -0 -0 -0 -0 -0 -0 -0 -0 -0
-0 -0 -0 -0 -0 -0 -0 -0 -6 -0 -11 -50 -0 -0 -0 -0 -0 -0 -0 -0 -0 -0
-0 -0 -0 -0 -0 -0 -0 -0 -2 -0 -12 -21 -0 -0 -0 -0 -0 -0 -0 -0 -0 -0
-0 -0 -0 -0 -0 -0 -0 -0 -1 -0 -1 -0 -0 -0 -0 -0 -0 -0 -0 -0 -0 -0
-0 -0 -0 -0 -0 -0 -0 -0 -0 -0 -0 -0 -0 -0 -0 -0 -0 -0 -0 -0 -0 -0
-0 -0 -0 -0 -0 -0 -0 -0 -0 -0 -0 -0 -0 -0 -0 -0 -0 -0 -0 -0 -0 -0
Wind_Speed
6 3 3 4 5 4 6 8 9 11 11 12 10 9 10 9 9 11 10 11 8 7
6 6 4 5 6 6 8 8 9 11 12 13 14 14 13 10 10 10 10 10 9 7
3 4 6 6 8 8 10 11 10 12 12 12 12 13 14 11 11 11 8 7 10 9
2 4 6 7 8 9 11 12 13 13 13 13 13 13 13 11 12 13 11 9 10 12
12 11 10 9 11 11 13 14 17 14 14 13 14 14 14 13 12 14 13 12 11 11
12 12 12 12 12 13 13 14 15 14 15 14 14 14 15 14 13 13 13 12 13 11
15 15 14 14 14 14 13 15 12 13 14 13 13 14 14 14 12 12 11 12 12 11
15 16 15 15 13 13 13 14 10 12 11 11 12 11 13 13 12 12 12 11 11 11
15 16 17 15 14 14 14 14 10 11 12 12 10 14 16 12 12 12 11 10 9 9
14 15 16 16 14 13 13 15 12 12 12 13 13 17 16 15 10 10 10 10 9 8
15 16 16 15 14 14 12 15 10 10 12 13 10 18 16 16 10 9 9 9 10 9
16 16 16 15 15 14 13 14 11 10 12 12 8 16 17 13 9 8 6 5 4 7
16 16 15 15 15 13 11 10 5 6 4 7 8 13 17 11 7 8 6 5 5 8
16 17 15 14 12 11 9 10 5 9 7 8 7 7 12 14 9 9 6 5 3 3
Wind_Direction
45 31 331 309 320 259 211 220 222 205 207 204 192 190 194 194 186 181 185 192 195 198
358 345 323 302 287 279 261 229 219 213 217 200 189 193 192 194 182 185 187 191 195 202
274 310 292 281 261 259 271 256 222 211 207 204 195 196 193 193 183 185 187 187 189 205
340 270 277 284 281 265 270 262 238 217 207 203 199 198 191 196 183 188 182 184 193 205
337 336 324 318 289 279 282 254 242 222 208 204 205 197 195 191 186 187 182 182 193 200
334 330 319 308 299 298 287 255 241 224 211 199 201 198 196 191 185 184 183 184 193 193
337 321 316 310 297 298 287 271 231 224 211 200 197 201 190 181 184 184 182 185 194 189
324 320 313 302 300 295 290 274 231 218 209 203 196 188 184 176 179 182 181 184 188 192
322 319 314 309 308 303 297 267 236 216 205 199 195 179 173 172 182 186 176 182 187 190
325 319 319 315 307 306 296 278 235 222 206 199 191 171 173 170 181 178 176 182 182 183
331 323 320 317 315 308 300 292 219 218 206 190 183 171 168 173 165 170 172 174 175 175
335 330 326 324 320 310 310 294 220 208 192 184 164 167 165 161 156 148 124 114 111 159
338 335 329 327 327 316 317 282 115 66 53 140 143 159 159 146 136 117 112 78 69 45
348 344 340 337 337 334 354 3 36 89 54 52 40 136 152 139 145 133 121 97 53 8